Melbourne, FL

4:13 PM EDT on June 26, 2017 (GMT -0400)
Melbourne International

Weather History for KMLB - October, 2012

Change the Weather History Date:

Monday, October 8, 2012

  Actual Average Record
Temperature  
Mean Temperature 79 °F 78 °F  
Max Temperature 84 °F 86 °F 92 °F (1962)
Min Temperature 74 °F 70 °F 55 °F (1964)
Degree Days  
Heating Degree Days 0 0  
Month to date heating degree days 0 0  
Since 1 July heating degree days 0 0  
Cooling Degree Days 14 13  
Month to date cooling degree days 128 108  
Year to date cooling degree days 3102 2800  
Growing Degree Days 28 (Base 50)    
Moisture  
Dew Point 74 °F    
Average Humidity 85    
Maximum Humidity 100    
Minimum Humidity 69    
Precipitation  
Precipitation 0.07 in 0.19 in 5.68 in (2011)
Month to date precipitation 0.90 1.63  
Year to date precipitation 34.77 43.12  
Sea Level Pressure  
Sea Level Pressure 29.99 in    
Wind  
Wind Speed 5 mph (ESE)    
Max Wind Speed 14 mph    
Max Gust Speed 18 mph    
Visibility 10 miles    
Events Rain    
T = Trace of Precipitation, MM = Missing Value Source: NWS Daily Summary

Daily Weather History Graph

Daily Weather History Graph

Search for Another Location

Airport or City:

Trip Planner

Search our weather history database for the weather conditions in past years. The results will help you decide how hot, cold, wet, or windy it might be!

Date:

Astronomy

Oct. 08, 2012 Rise Set
Actual Time 7:19 AM EDT 7:00 PM EDT
Civil Twilight 6:55 AM EDT 7:23 PM EDT
Nautical Twilight 6:28 AM EDT 7:50 PM EDT
Astronomical Twilight 6:01 AM EDT 8:18 PM EDT
Moon 12:30 AM EDT (10/8) 2:17 PM EDT (10/8)
Length of Visible Light 12h 27m
Length of Day
11h 40m
Waning Gibbous, 46% of the Moon is Illuminated
Oct 8
Waning Gibbous
Oct 15
New
Oct 21
First Quarter
Oct 29
Full
Nov 6
Last Quarter

Hourly Weather History & Observations

Time (EDT) Temp. Heat Index Dew Point Humidity Pressure Visibility Wind Dir Wind Speed Gust Speed Precip Events Conditions
12:53 AM 77.0 °F - 75.0 °F 94% 29.98 in 10.0 mi Calm Calm - N/A   Clear
1:53 AM 75.0 °F - 73.9 °F 96% 29.96 in 10.0 mi West 3.5 mph - N/A   Clear
2:53 AM 75.0 °F - 75.0 °F 100% 29.95 in 10.0 mi Calm Calm - N/A   Clear
3:53 AM 73.9 °F - 73.9 °F 100% 29.95 in 10.0 mi WNW 4.6 mph - N/A   Clear
4:53 AM 75.0 °F - 73.9 °F 96% 29.95 in 10.0 mi North 3.5 mph - N/A   Clear
5:53 AM 75.0 °F - 73.9 °F 96% 29.97 in 10.0 mi WNW 3.5 mph - N/A   Clear
6:53 AM 75.0 °F - 75.0 °F 100% 29.99 in 10.0 mi WNW 3.5 mph - N/A   Partly Cloudy
7:12 AM 75.2 °F - 75.2 °F 100% 29.99 in 10.0 mi Calm Calm - N/A   Mostly Cloudy
7:53 AM 75.9 °F - 75.0 °F 97% 30.01 in 10.0 mi Calm Calm - N/A   Scattered Clouds
8:12 AM 75.2 °F - 71.6 °F 89% 30.02 in 10.0 mi SE 10.4 mph 18.4 mph N/A   Mostly Cloudy
8:30 AM 73.4 °F - 71.6 °F 94% 30.02 in 1.8 mi ESE 10.4 mph - 0.06 in Rain Heavy Rain
8:37 AM 73.4 °F - 71.6 °F 94% 30.02 in 6.0 mi ESE 4.6 mph - 0.07 in Rain Light Rain
8:53 AM 75.0 °F - 72.0 °F 90% 30.03 in 10.0 mi ENE 4.6 mph - 0.07 in   Mostly Cloudy
9:53 AM 78.1 °F - 75.0 °F 90% 30.04 in 10.0 mi East 10.4 mph - 0.00 in Rain Light Rain
10:53 AM 79.0 °F - 75.0 °F 88% 30.04 in 10.0 mi East 6.9 mph - 0.00 in   Clear
11:53 AM 82.0 °F 86.3 °F 71.1 °F 69% 30.04 in 10.0 mi East 6.9 mph - N/A   Clear
12:53 PM 82.0 °F 86.7 °F 72.0 °F 71% 30.01 in 10.0 mi East 9.2 mph - N/A   Scattered Clouds
1:53 PM 82.0 °F 87.4 °F 73.0 °F 74% 29.99 in 10.0 mi ESE 8.1 mph - N/A   Partly Cloudy
2:53 PM 82.0 °F 87.4 °F 73.0 °F 74% 29.95 in 10.0 mi East 8.1 mph - N/A   Clear
3:53 PM 82.9 °F 88.8 °F 73.0 °F 72% 29.94 in 10.0 mi East 5.8 mph - N/A   Clear
4:53 PM 82.9 °F 88.0 °F 72.0 °F 69% 29.96 in 10.0 mi ESE 6.9 mph - N/A   Clear
5:53 PM 81.0 °F 86.2 °F 73.9 °F 79% 29.94 in 10.0 mi ESE 10.4 mph - N/A   Clear
6:53 PM 81.0 °F 85.8 °F 73.0 °F 77% 29.96 in 10.0 mi ESE 6.9 mph - N/A   Clear
7:53 PM 80.1 °F 84.5 °F 73.9 °F 81% 29.96 in 10.0 mi SSE 4.6 mph - N/A   Clear
8:53 PM 79.0 °F - 75.0 °F 88% 30.00 in 10.0 mi WNW 3.5 mph - 0.00 in Rain Light Rain
10:53 PM 78.1 °F - 75.9 °F 93% 30.02 in 10.0 mi SSW 4.6 mph - N/A   Partly Cloudy
11:53 PM 77.0 °F - 75.9 °F 96% 30.02 in 10.0 mi Calm Calm - N/A   Clear